Home   Weather   Portland   Past weeks

Flag for USA Past Weather in Portland, Maine, USA — Yesterday and Last 2 Weeks

Now
31 °F

Overcast.


Feels Like: 18 °F
Forecast: 32 / 37 °F
Wind: 21 mph from Northeast

Location: Portland - Portland International Jetport

Current Time: Jan 23, 2017 at 8:18:18 pm

Latest Report: Jan 23, 2017 at 6:51 pm


Visibility: 10 mi

Pressure: 30.06 "Hg

Humidity: 67%

Dew Point: 21 °F

Location of PortlandLocation

Past Weather in Portland — Graph

°F

Portland Temperature Yesterday

Maximum temperature yesterday: 37 °F (at 1:51 am)
Minimum temperature yesterday: 33 °F (at 11:07 pm)
Average temperature yesterday: 36 °F

High & Low Weather Summary for the Past Weeks

 TemperatureHumidityPressure
High54 °F (Jan 11, 1:51 pm)97% (Jan 12, 6:07 am)30.70 "Hg (Jan 12, 6:07 am)
Low2 °F (Jan 9, 6:51 am)29% (Jan 14, 3:51 pm)29.72 "Hg (Jan 21, 1:51 pm)
Average31 °F69%30.17 "Hg
* Reported Jan 8 6:51 pm — Jan 23 6:51 pm, Portland, Weather by CustomWeather, © 2017

Note: Actual official high and low records may vary slightly from our data, if they occured in-between our weather recording intervals... More about our weather records

Advertising

Portland Weather History for the Previous 24 Hours

Scroll right to see more
 ConditionsComfort  
Time TempWeatherWind HumidityBarometerVisibility
6:51 pm
Mon, Jan 23
31 °FOvercast.21 mph67%30.06 "Hg10 mi
5:51 pm31 °FOvercast.15 mph73%30.07 "Hg10 mi
4:51 pm31 °FOvercast.15 mph73%30.08 "Hg10 mi
3:51 pm31 °FOvercast.16 mph69%30.08 "Hg10 mi
2:51 pm31 °FOvercast.18 mph69%30.06 "Hg10 mi
1:51 pm31 °FOvercast.14 mph73%30.08 "Hg10 mi
12:51 pm31 °FOvercast.14 mph69%30.09 "Hg10 mi
11:51 am31 °FOvercast.15 mph69%30.11 "Hg10 mi
10:51 am31 °FOvercast.13 mph67%30.14 "Hg10 mi
9:51 am31 °FOvercast.15 mph67%30.14 "Hg10 mi
8:51 am30 °FOvercast.13 mph69%30.14 "Hg10 mi
7:51 am30 °FOvercast.15 mph69%30.14 "Hg10 mi
6:51 am30 °FOvercast.14 mph66%30.11 "Hg10 mi
5:51 am31 °FOvercast.17 mph67%30.09 "Hg10 mi
5:05 am31 °FOvercast.15 mph67%30.09 "Hg10 mi
3:51 am32 °FOvercast.12 mph64%30.10 "Hg10 mi
2:51 am32 °FOvercast.16 mph66%30.09 "Hg10 mi
1:51 am32 °FOvercast.14 mph64%30.08 "Hg10 mi
12:51 am32 °FOvercast.14 mph66%30.06 "Hg10 mi
12:18 am33 °FOvercast.14 mph66%30.07 "Hg10 mi
11:51 pm
Sun, Jan 22
33 °FOvercast.14 mph66%30.07 "Hg10 mi
11:07 pm33 °FOvercast.13 mph66%30.07 "Hg10 mi
9:51 pm34 °FOvercast.14 mph67%30.05 "Hg10 mi
8:51 pm35 °FOvercast.14 mph64%30.03 "Hg10 mi
Weather by CustomWeather, © 2017

See weather overviewHow to use our weather pages